Regional Weather Roundup
Issued by NWS Pendleton, OR

Home | Current Version | Previous Version | Text Only | Print | Product List | Glossary On
Versions: 1 2 3 4 5 6 7 8 9 10 11 12 13 14 15 16 17 18 19 20 21 22 23 24 25 26 27 28 29 30 31 32 33 34 35 36 37 38 39 40 41 42 43 44 45 46 47 48 49 50
000
ASUS46 KPDT 210025
RWRPDT
PENDLETON REGIONAL WEATHER ROUNDUP
NATIONAL WEATHER SERVICE PENDLETON OREGON
500 PM PDT SAT SEP 20 2014

NOTE: FAIR INDICATES FEW OR NO CLOUDS BELOW 12,000 FEET WITH NO
SIGNIFICANT WEATHER AND/OR OBSTRUCTIONS TO VISIBILITY.

# INDICATES UNOFFICIAL STATION AND DATA

WAZ520-210110-
EAST SLOPES OF WASHINGTON CASCADES

CITY            SKY/WX      TMP DP  RH  WIND    PRES   REMARKS
#BUMPING DAM    N/A         73  N/A N/A SW2     N/A
#CLE ELUM HS    N/A         79  46  31  SE6     30.01
#CLE ELUM 2NW   N/A         78  43  29  NE6     N/A
#CLE ELUM LAKE  N/A         78  50  38  SW1     29.96F
#CLIFFDEL 2NW   N/A         79  46  31  S2      N/A
#GLENWOOD       N/A         82  52  35  NE5     29.95
#MANASTASH CYN  N/A         74  48  40  N2      30.07F
#NELSON 3SW     N/A         76  50  40  CALM    30.17
#NILE           N/A         80  49  34  N2      29.27
#RONALD 2NW     N/A         77  50  39  SE2     29.96S
#SNOWDEN        N/A         80  35  20  E7      N/A
#TEANAWAY 4NE   N/A         82  55  40  CALM    N/A
$$

WAZ521-210110-
SIMCOE HIGHLANDS

CITY            SKY/WX      TMP DP  RH  WIND    PRES   REMARKS
#BICKLETON HS   N/A         73  41  31  NE12    30.15S
#CENTERVILLE 4W N/A         82  48  31  E12     29.76S
#CENTERVILLE 1SWN/A         82  51  34  E12     29.91
#GOLDENDALE     N/A         84  45  26  E10     N/A
#GOLDENDALE 1NE N/A         84  39  20  E9      N/A
#GOLDENDALE 1S  N/A         84  50  31  E13     29.97
#GOLDENDALE 5WNWN/A         84  50  31  NE6     29.91S
#GOODNOE HILLS  N/A         86  49  28  NE14    29.91F
$$

WAZ026-210110-
KITTITAS VALLEY

CITY            SKY/WX      TMP DP  RH  WIND    PRES   REMARKS
ELLENSBURG AP   SUNNY       85  48  28  SE12    30.05
6HR MIN TEMP:   71; 6HR MAX TEMP:   87; 6HR PCP:  TRACE;

#ELLENSBURG CWU N/A         81  50  34  E10     29.95F
#ELLENSBURG 3NE N/A         79  54  42  S3      30.04
#ELLENSBURG     N/A         84  50  31  E2      N/A
#KITTITAS 3S    N/A         80  57  45  E3      29.97
#THORP 6N       N/A         78  49  36  SE7     30.02
$$

WAZ027-210110-
YAKIMA VALLEY

CITY            SKY/WX      TMP DP  RH  WIND    PRES   REMARKS
YAKIMA AIRPORT  SUNNY       86  48  27  E5      30.01
6HR MIN TEMP:   75; 6HR MAX TEMP:   88;

#COWICHE 1N     N/A         80  54  41  SE1     30.21S
#DONALD 2NE     N/A         93  27   9  W1      30.32S HX 88
#GRANDVIEW      N/A         84  47  28  CALM    29.96F
#MABTON         N/A         84  56  38  N1      29.98
#MOXEE 2E       N/A         84  22  10  NE9     29.91S
#NACHES 2SW     N/A         81  54  39  E2      30.16
#OUTLOOK DOT    N/A         N/A N/A N/A NE2     N/A
#SELAH 8E       N/A         81  46  29  E8      N/A
#TOPPENISH      N/A         84  53  34  E1      29.89
#WAPATO 4NE     N/A         93  27   9  W1      30.32S HX 88
#W YAKIMA       N/A         83  50  32  E1      29.96S
#WHITE SWAN 5E  N/A         83  54  37  N2      29.97
#WILEY CITY 3W  N/A         82  46  28  NE3     30.03
$$

WAZ028-210110-
LOWER COLUMBIA BASIN...WASHINGTON

CITY            SKY/WX      TMP DP  RH  WIND    PRES   REMARKS
PASCO           SUNNY       86  58  39  N12     29.95
6HR MIN TEMP:   74; 6HR MAX TEMP:   87;

PROSSER AWOS    N/A         86  48  27  N9      30.00
#BASIN CITY 5SW N/A         86  58  39  N6      29.96F
#BENTON CITY    N/A         85  50  30  NE7     29.85
#CONNELL 5N     N/A         88  43  21  N7      29.96
#ELTOPIA        N/A         90  54  30  CALM    29.89F HX 88
#ELTOPIA 6NW    N/A         87  54  32  NW8     28.95
#KENNEWICK 3S   N/A         87  54  32  CALM    29.95
#PATERSON       N/A         86  54  34  NE2     29.92
#PROSSER        N/A         86  45  24  NE3     29.95
#SAGEMOOR 2W    N/A         89  56  33  N2      29.80
#TOUCHET 2S     N/A         86  57  37  W5      29.91
#WEST PASCO     N/A         88  56  34  N5      29.95S
$$

WAZ029-210110-
FOOTHILLS OF THE BLUES...WASHINGTON

CITY            SKY/WX      TMP DP  RH  WIND    PRES   REMARKS
WALLA WALLA AP  SUNNY       85  52  32  S7      29.98
6HR MIN TEMP:   72; 6HR MAX TEMP:   85;

#DAYTON SCHOOL  N/A         86  38  18  N6      29.98
#LOWDEN 2SE     N/A         87  58  38  W6      29.90
#PLEASANT VIEW 1N/A         86  43  22  N3      29.98
#PRESCOTT       N/A         90  45  21  NE6     29.91  HX 86
#SUDBURY        N/A         89  N/A N/A CALM    N/A
#WHITMAN COLLEGEN/A         84  56  38  S3      29.96F
#WAITSBURG 8N   N/A         86  29  13  N13     29.91S
#WALLA WALLA 5E N/A         83  52  34  W7      N/A
#WHITMAN MISSIONN/A         87  58  38  W1      29.92F
$$

WAZ030-210110-
BLUE MOUNTAINS...WASHINGTON

CITY            SKY/WX      TMP DP  RH  WIND    PRES   REMARKS
$$

ORZ009-041-WAZ024-210110-
COLUMBIA RIVER GORGE

CITY            SKY/WX      TMP DP  RH  WIND    PRES   REMARKS
HOOD RIVER AP   SUNNY       88  46  23  SE6     29.93F
THE DALLES AP   SUNNY       91  47  22  E13     29.91  HX 88
6HR MIN TEMP:   73; 6HR MAX TEMP:   92;

#ARLINGTON AIRPON/A         85  48  28  NE13    29.93F
#ARLINGTON HS   N/A         87  46  24  SW2     29.83F
#MARYHILL 2W    N/A         88  51  28  CALM    N/A
#MOSIER 1S      N/A         87  38  18  CALM    29.94S
#MURDOCK        N/A         90  51  26  E6      29.91S HX 87
#RUFUS DOT      N/A         86  55  35  SW6     N/A

$$

ORZ510-210110-
NORTH CENTRAL OREGON

CITY            SKY/WX      TMP DP  RH  WIND    PRES   REMARKS
#COW CYN RST AREN/A         80  45  29  N7      N/A
#DUFUR 9E       N/A         78  47  34  E20     29.97
#GRASS VALLEY   N/A         77  47  35  N3      N/A
#GRASS VALLEY 1SN/A         79  50  36  E6      29.96S
#KENT DOT       N/A         79  44  29  NE15    N/A
#MAUPIN SCHOOL  N/A         86  53  32  NE7     28.82F
#MORO SCHOOL    N/A         80  55  42  E7      30.02
#SHANIKO 5WSW   N/A         76  43  31  NE18    N/A
#TYGH VALLEY 2NEN/A         86  50  29  E7      29.91
#WAPANITIA AIRPON/A         83  48  30  NE8     29.93
#WASCO DOT      N/A         85  50  30  E13     N/A
$$

ORZ511-210110-
CENTRAL OREGON

CITY            SKY/WX      TMP DP  RH  WIND    PRES   REMARKS
BEND AIRPORT    SUNNY       81  45  28  N12     30.04S
MADRAS AIRPORT  SUNNY       84  45  26  N14     30.01
#BEND 6E        N/A         80  43  27  CALM    29.82S
#BEND 1SW       N/A         77  48  36  CALM    N/A
#BEND-AWBREY    N/A         83  49  31  S3      29.90S
#BEND-KIM LN    N/A         80  50  35  N2      30.01
#CROOKED RVR RANN/A         82  50  33  E7      29.88F
#CULVER         N/A         83  50  32  N3      29.96
#LAKE BILLY CHINN/A         82   0   4  N6      30.01S
#POWELL BUTTE 3EN/A         82  50  33  NW8     N/A
#POWELL BUTTE   N/A         82  50  33  N2      29.67S
#PRINEVILLE 3N  N/A         83  51  33  W9      29.82F
#WARM SPRINGS   N/A         87  51  29  NW6     29.93


ORZ509-210110-
EAST SLOPES OF OREGON CASCADES

CITY            SKY/WX      TMP DP  RH  WIND    PRES   REMARKS
#BLUE BOX PASS  N/A         74  17  11  CALM    N/A
#CAMP SHERMAN   N/A         83  44  25  N1      29.93
#LA PINE DOT    N/A         82  35  18  N8      N/A
#LA PINE 4NW    N/A         82  50  33  N1      29.93
#LAVA BUTTE DOT N/A         77  42  29  CALM    N/A
#SISTERS AIRPOR N/A         80  55  42  NE2     29.91S
#SISTERS ODOT   N/A         80  N/A N/A NW2     N/A
#SISTERS 3N     N/A         79  46  31  CALM    N/A
#SUNRIVER       N/A         80  48  33  N2      29.80F
#SUNRIVER AP    N/A         81  47  30  E7      29.87
#WANOGA BUTTE D N/A         70  42  36  NE6     N/A

$$

ORZ044-210110-
LOWER COLUMBIA BASIN...OREGON

CITY            SKY/WX      TMP DP  RH  WIND    PRES   REMARKS
HERMISTON       SUNNY       89  48  24  NE7     29.95
6HR MIN TEMP:   74; 6HR MAX TEMP:   90;

#BOARDMAN SCHOOLN/A         88  50  27  NE3     29.93
#BOARDMAN 3W    N/A         86  53  32  E5      29.62F
#BOARDMAN 8SW   N/A         87  52  30  N6      29.93S
#IONE SCHOOL    N/A         83  49  31  E3      29.97
#IRRIGON 4NW    N/A         90  48  24  NE5     N/A    HX 87
#UMATILLA       N/A         90  50  26  N5      29.92  HX 87
$$

ORZ507-210110-
NORTHERN FOOTHILLS OF THE BLUES

CITY            SKY/WX      TMP DP  RH  WIND    PRES   REMARKS
PENDLETON AIRPT SUNNY       86  45  24  N9      29.98
6HR MIN TEMP:   75; 6HR MAX TEMP:   87;

#ATHENA         N/A         82  51  34  NE2     29.97
#HELIX SCHOOL   N/A         83  50  32  N7      29.94
#HELIX 3N       N/A         81  48  32  N12     29.98
#HELIX 6SW      N/A         84  49  30  NE7     29.99
#HOLDMAN 5SE    N/A         85  49  29  NE1     29.99
#HOLDMAN 6E     N/A         84  48  29  SE7     29.76
#M-F GROVE ELEM N/A         85  49  29  CALM    29.96F
#M-FREEWATER 5SEN/A         83  55  38  W2      29.98
#PENDLETON DNTN N/A         87  46  24  N2      29.96
#PDT AQUATIC CTRN/A         87  52  30  N3      29.97
#PENDLETON 5NE  N/A         86  52  31  NE7     29.93F
#PDT SUNRIDGE   N/A         87  51  29  NE1     29.98
#PENDLETON 7NW  N/A         83  54  37  CALM    N/A
#PILOT ROCK     N/A         82  46  28  N1      30.01F
#TUTUILLA       N/A         84  48  29  NE7     29.95F
#UMAPINE 2E     N/A         88  57  35  CALM    29.92F
#WESTON SCHOOL  N/A         80  46  30  E5      29.96

$$

ORZ508-210110-
SOUTHERN FOOTHILLS OF THE BLUES

CITY            SKY/WX      TMP DP  RH  WIND    PRES   REMARKS
LEXINGTON       SUNNY       82  46  28  N15     30.01F
#AJAX           N/A         79  44  29  NE14    29.96
#CONDON SCHOOL  N/A         77  49  37  CALM    30.01
#FOSSIL SCHOOL  N/A         79  48  34  NE16G28 30.00S
#HEPPNER EOC    N/A         81  49  33  N8      29.90
#HEPPNER 4NE    N/A         76  49  39  E7      29.95
#LEXINGTON 2SE  N/A         84  51  32  CALM    29.96
#MIKKALO        N/A         82  47  29  N7      30.01
#OLEX 4N        N/A         82  50  33  N12     29.97
#RUGGS 5NE      N/A         81  48  32  NE8     30.23
#RUGGS 2SW      N/A         77  49  37  N7      29.96

$$

ORZ502-503-210110-
BLUE MOUNTAINS

CITY            SKY/WX      TMP DP  RH  WIND    PRES   REMARKS
MEACHAM         SUNNY       75  44  33  VRB3    30.11
6HR MIN TEMP:   72; 6HR MAX TEMP:   79;

#BATTLE MTN DOT N/A         70  53  55  N6      N/A
#HARDMAN 10S    N/A         75  48  38  N6      30.16
#HEPPNER 15SE   N/A         70  47  44  CALM    30.04F
#LADD CYN SMT   N/A         79  40  25  W6      N/A
#LADD CREEK ODOTN/A         81  51  35  CALM    N/A
#N POWDER DOT   N/A         83  52  34  W2      N/A
#PIKES PEAK     N/A         74  46  37  N7      27.99
#TOLLGATE       N/A         71  49  46  CALM    30.09
#UKIAH          N/A         79  48  34  NW9     30.00
#WESTON 4E      N/A         75  48  38  N3      29.88F
$$

ORZ505-210110-
JOHN DAY BASIN

CITY            SKY/WX      TMP DP  RH  WIND    PRES   REMARKS
JOHN DAY        SUNNY       87  41  20  CALM    30.04S
#JOHN DAY KJDY  N/A         83  42  24  CALM    30.07
#MONUMENT HS    N/A         91  44  20  CALM    29.96  HX 87
#MT. VERNON 5SE N/A         82  44  26  N1      30.01
#WINLOCK        N/A         80  46  30  SE5     30.10F
$$

ORZ506-210110-
OCHOCO AND JOHN DAY HIGHLANDS

CITY            SKY/WX      TMP DP  RH  WIND    PRES   REMARKS
#BUCK CREEK DOT N/A         87  47  25  NE5     N/A
#HORSE RIDGE DO N/A         80  44  28  NW15    N/A
#KEYES SMT DOT  N/A         80  40  24  W7      N/A
#PAULINA SCHOOL N/A         87  40  19  CALM    30.03
#PINE MTN OBS   N/A         72  42  34  NW7     N/A
#PRAIRIE CITY   N/A         88  50  27  CALM    29.76
#SENECA 9NW     N/A         84  42  23  CALM    29.92
$$

ORZ049-210110-
GRANDE RONDE VALLEY

CITY            SKY/WX      TMP DP  RH  WIND    PRES   REMARKS
LA GRANDE       SUNNY       84  41  22  N3      30.02F
#COVE           N/A         84  50  31  CALM    29.96
#COVE 6NW       N/A         83  45  26  CALM    30.00
#ELGIN 3N       N/A         85  38  19  CALM    29.75F
#ELGIN 1E       N/A         87  45  23  W1      N/A
#IMBLER SCHOOL  N/A         83  46  27  W3      29.98F
#LADD CYN DOT   N/A         82  49  32  W3      N/A
#LA GRANDE ELEM N/A         83  44  25  CALM    30.01S
#UNION 1S       N/A         82  49  32  CALM    29.86
$$

ORZ050-210110-
WALLOWA COUNTY

CITY            SKY/WX      TMP DP  RH  WIND    PRES   REMARKS
#ENTERPRISE AP  N/A         82  34  18  SW5     30.03
#ENTERPRISE HS  N/A         82  45  27  CALM    30.06
#IMNAHA SCHOOL  N/A         84  41  22  VRB2    29.89
#IMNAHA 10S     N/A         82  46  28  NE3     30.02S
#JOSEPH 3N      N/A         79  44  29  CALM    30.11S
#JOSEPH 3W      N/A         70  37  30  CALM    29.98F
#LOSTINE        N/A         85  39  20  CALM    29.76
#MT HOWARD 8000 N/A         62  37  39  NE2     30.40



$$



USA.gov is the U.S. government's official web portal to all federal, state and local government web resources and services.